Location: Southlake
(32.9412°N, 97.1342°W)
Time: 09:22:36
(UTC+00:00)

BlueWalker 3 - Visible Passes

Search period start: 28 November 2023 00:00
Search period end: 08 December 2023 00:00
Orbit: 489 x 504 km, 53.2° (Epoch: 27 November)

Date Brightness Start Highest point End Pass type
(mag) Time Alt. Az. Time Alt. Az. Time Alt. Az.
30 Nov 4.2 12:40:40 10° N 12:43:17 17° NE 12:45:53 10° ENE visible
01 Dec 4.2 12:18:05 10° N 12:20:41 17° NE 12:23:16 10° ENE visible
02 Dec 4.2 11:55:29 10° N 11:58:03 17° NE 12:00:37 10° ENE visible
03 Dec 4.2 11:33:54 14° N 11:35:25 17° NE 11:37:58 10° ENE visible
04 Dec 4.2 11:12:27 16° NNE 11:12:46 17° NE 11:15:17 10° ENE visible
05 Dec 4.6 10:51:03 15° NE 10:51:03 15° NE 10:52:35 10° ENE visible
05 Dec 2.1 12:25:38 14° NW 12:28:43 57° SW 12:32:26 10° SSE visible
06 Dec 5.2 10:29:43 11° ENE 10:29:43 11° ENE 10:29:52 10° ENE visible
06 Dec 2.0 12:04:17 28° WNW 12:06:02 58° SW 12:09:46 10° SSE visible
07 Dec 1.9 11:43:00 56° WSW 11:43:20 59° SW 11:47:04 10° SSE visible
